+ View the NASA Portal
+ Center for Near-Earth Object Studies
IMPORTANT:
The SSD Announcement email list is now available. Major changes are coming in the near future, including possible hostname and/or URL changes. To be notified of such changes, subscribe to this email list.
Please visit
this page
for more details.
Don't show this message again
JPL Small-Body Database Browser
Search:
[
help
]
266061 (2006 QM135)
Classification:
Main-belt Asteroid
SPK-ID:
2266061
[
Ephemeris
|
Orbit Diagram
|
Orbital Elements
|
Mission Design
|
Physical Parameters
|
Discovery Circumstances
|
Close-Approach Data
]
[ show orbit diagram ]
Orbital Elements at Epoch 2458600.5 (2019-Apr-27.0) TDB
Reference:
JPL 11
(heliocentric ecliptic J2000)
Element
Value
Uncertainty (1-sigma)
Units
e
.1079814838991058
5.3984e-08
a
2.31591734758429
2.1324e-08
au
q
2.065841155804458
1.1616e-07
au
i
6.189750847378748
4.7986e-06
deg
node
224.6547545079317
5.0112e-05
deg
peri
164.3098879058689
5.6289e-05
deg
M
175.2815241576661
2.6565e-05
deg
t
p
2457973.717805147481
(2017-Aug-08.21780515)
9.1557e-05
TDB
period
1287.309607964967
3.52
1.7779e-05
4.868e-08
d
yr
n
.2796530048191772
3.8623e-09
deg/d
Q
2.565993539364123
2.3626e-08
au
Orbit Determination Parameters
# obs. used (total)
196
data-arc span
5617 days (15.38 yr)
first obs. used
2003-12-22
last obs. used
2019-05-09
planetary ephem.
DE431
SB-pert. ephem.
SB431-N16
condition code
0
norm. resid. RMS
.5658
source
ORB
producer
Otto Matic
solution date
2019-May-30 08:50:30
Additional Information
Earth MOID
= 1.07118 au
Jupiter MOID
= 2.84171 au
T_jup
= 3.566
[ show covariance matrix ]
[
Ephemeris
|
Orbit Diagram
|
Orbital Elements
|
Mission Design
|
Physical Parameters
|
Discovery Circumstances
|
Close-Approach Data
]
Physical Parameter Table
Parameter
Symbol
Value
Units
Sigma
Reference
Notes
absolute magnitude
H
17.4
n/a
MPO433726
266061 (2006 QM135)
Discovered 2006-Aug-27 by LONEOS at Anderson Mesa
Reference:
20110218/Numbers.arc
Last Updated:
2011-02-22
[ show close-approach data ]
[
Ephemeris
|
Orbit Diagram
|
Orbital Elements
|
Mission Design
|
Physical Parameters
|
Discovery Circumstances
|
Close-Approach Data
]
2019-Dec-12 14:07 UT
(server date/time)
Site Manager:
Ryan S. Park
Webmaster
:
Alan B. Chamberlin